Regional Weather Roundup
Issued by NWS

Home | Current Version | Previous Version | Graphics & Text | Print | Product List | Glossary On
Versions: 1 2 3 4 5 6 7 8 9 10 11 12 13 14 15 16 17 18 19 20 21 22 23 24 25 26 27 28 29 30 31 32 33 34 35 36 37 38 39 40 41 42 43 44 45 46 47 48 49 50
301
ASUS43 KMKX 191220
RWRWI

WISCONSIN REGIONAL WEATHER ROUNDUP
NATIONAL WEATHER SERVICE MILWAUKEE/SULLIVAN WI
700 AM CDT THU APR 19 2018

NOTE: "FAIR" INDICATES FEW OR NO CLOUDS BELOW 12,000 FEET WITH NO
SIGNIFICANT WEATHER AND/OR OBSTRUCTIONS TO VISIBILITY.

WIZ001-002-006>008-014>016-023>028-191300-
NORTHWEST WISCONSIN

CITY           SKY/WX    TMP DP  RH WIND       PRES   REMARKS
SUPERIOR ARPT  FAIR      24  17  72 SW3       30.39R
6HR MIN TEMP:  20; 6HR MAX TEMP:  24;

ASHLAND        FAIR      17  13  84 CALM      30.35R
6HR MIN TEMP:  16; 6HR MAX TEMP:  29;

HAYWARD        FAIR      15  11  83 CALM      30.35R
6HR MIN TEMP:  13; 6HR MAX TEMP:  24;

SIREN          FAIR      24  14  66 CALM      30.39R
6HR MIN TEMP:  18; 6HR MAX TEMP:  26;

CUMBERLAND     FAIR      25  10  54 NW9       30.36R WCI  15
RICE LAKE      FAIR      20  16  84 W5        30.38R WCI  14
6HR MIN TEMP:  19; 6HR MAX TEMP:  29;

CHETEK         FAIR      24  16  73 CALM      30.36R
6HR MIN TEMP:  22; 6HR MAX TEMP:  29;

LADYSMITH      FAIR      20  14  76 CALM      30.35R
6HR MIN TEMP:  20; 6HR MAX TEMP:  31;

EAU CLAIRE     FAIR      23  16  74 CALM      30.34R
6HR MIN TEMP:  20; 6HR MAX TEMP:  32;

MENOMONIE      FAIR      28  17  61 W7        30.38R WCI  21
6HR MIN TEMP:  26; 6HR MAX TEMP:  34;

NEW RICHMOND   FAIR      22  14  69 N3        30.39R
6HR MIN TEMP:  19; 6HR MAX TEMP:  30;

OSCEOLA        FAIR      18  13  80 CALM      30.43R
6HR MIN TEMP:  18; 6HR MAX TEMP:  33;

$$

WIZ003>005-009-010-017-018-191300-
NORTH CENTRAL WISCONSIN

CITY           SKY/WX    TMP DP  RH WIND       PRES   REMARKS
MANITOWISH WTR FAIR      15  15 100 CALM      30.29R
6HR MIN TEMP:  13; 6HR MAX TEMP:  29;

ARBOR VITAE    FAIR      21  17  83 N5        30.28R WCI  15
6HR MIN TEMP:  17; 6HR MAX TEMP:  27;

WOODRUFF       FAIR      21  17  83 N5        30.28R WCI  15
6HR MIN TEMP:  17; 6HR MAX TEMP:  27;

RHINELANDER    FAIR      27  18  69 NW5       30.28R WCI  22
6HR MIN TEMP:  26; 6HR MAX TEMP:  29;

EAGLE RIVER    FAIR      24  18  78 N3        30.27R
6HR MIN TEMP:  15; 6HR MAX TEMP:  27;

LAND O LAKES   FAIR      26  21  79 N3        30.30R
6HR MIN TEMP:  24; 6HR MAX TEMP:  29;

PHILLIPS       FAIR      15  13  90 CALM      30.31R
6HR MIN TEMP:  14; 6HR MAX TEMP:  29;

TOMAHAWK       FAIR      24  17  73 NW3       30.30R
6HR MIN TEMP:  23; 6HR MAX TEMP:  28;

MEDFORD        FAIR      24  15  68 N5        30.29R WCI  18
6HR MIN TEMP:  23; 6HR MAX TEMP:  28;

MERRILL          N/A     23  15  72 N5        30.30R WCI  17
6HR MIN TEMP:  18; 6HR MAX TEMP:  30;

$$

WIZ029-030-035-036-043>047-191300-
CENTRAL WISCONSIN

CITY           SKY/WX    TMP DP  RH WIND       PRES   REMARKS
WAUSAU         FAIR      26  17  68 NW5       30.27R WCI  20
6HR MIN TEMP:  25; 6HR MAX TEMP:  31;

MOSINEE        CLEAR     28  18  64 N9        30.28R WCI  20
MARSHFIELD     FAIR      22  13  68 N8        30.28R WCI  12
6HR MIN TEMP:  20; 6HR MAX TEMP:  32;

STEVENS POINT  FAIR      27  15  62 N6        30.29R WCI  20
6HR MIN TEMP:  26; 6HR MAX TEMP:  31;

WAUPACA        FAIR      30  17  56 NW6       30.28R WCI  24
6HR MIN TEMP:  28; 6HR MAX TEMP:  35;

WAUTOMA        NOT AVBL
WISC RAPIDS    FAIR      25  13  60 NW3       30.30R
6HR MIN TEMP:  21; 6HR MAX TEMP:  33;

CAMP DOUGLAS   PTCLDY    19  18  93 W7        30.31R WCI  10
$$

WIZ011>013-019>022-031-037>040-048>050-191300-
NORTHEAST WISCONSIN

CITY           SKY/WX    TMP DP  RH WIND       PRES   REMARKS
ANTIGO         FAIR      22  14  71 N8        30.26R WCI  12
6HR MIN TEMP:  20; 6HR MAX TEMP:  28;

SHAWANO        FAIR      32  18  57 CALM      30.27R
6HR MIN TEMP:  30; 6HR MAX TEMP:  35;

OCONTO         FAIR      31  18  58 NW3       30.25R
6HR MIN TEMP:  30; 6HR MAX TEMP:  34;

STURGEON BAY   FAIR      31  23  72 N13       30.23R WCI  21
6HR MIN TEMP:  29; 6HR MAX TEMP:  32;

GREEN BAY      FAIR      31  19  61 N8        30.25R WCI  23
6HR MIN TEMP:  30; 6HR MAX TEMP:  34;

MANITOWOC      FAIR      30  21  69 N15       30.23R WCI  19
6HR MIN TEMP:  30; 6HR MAX TEMP:  34;

APPLETON       CLEAR     30  14  51 NW9       30.23R WCI  22
CLINTONVILLE   FAIR      25  14  64 NW5       30.27R WCI  19
6HR MIN TEMP:  23; 6HR MAX TEMP:  34;

OSHKOSH        FAIR      28  18  66 NW9       30.25R WCI  19
6HR MIN TEMP:  27; 6HR MAX TEMP:  33;

$$

WIZ032>034-041-042-053>061-191300-
SOUTHWEST WISCONSIN

CITY           SKY/WX    TMP DP  RH WIND       PRES   REMARKS
LA CROSSE      FAIR      26  23  88 N6        30.36R WCI  19
6HR MIN TEMP:  21; 6HR MAX TEMP:  31;

SPARTA         FAIR      10   8  93 CALM      30.35R
6HR MIN TEMP:   8; 6HR MAX TEMP:  21;

VIROQUA        FAIR      25  22  91 CALM      30.32R
6HR MIN TEMP:  23; 6HR MAX TEMP:  29;

BOSCOBEL       FAIR      20  19  96 CALM      30.34R
6HR MIN TEMP:  19; 6HR MAX TEMP:  33;

PRAIRIE DU CHI FAIR      25  24  95 CALM      30.34R
6HR MIN TEMP:  24; 6HR MAX TEMP:  32;

PLATTEVILLE    FAIR      26  24  91 N8        30.30R WCI  18
6HR MIN TEMP:  26; 6HR MAX TEMP:  33;

$$

WIZ056-057-062-063-064-067-068-191300-
SOUTH CENTRAL WISCONSIN

CITY           SKY/WX    TMP DP  RH WIND       PRES   REMARKS
REEDSBURG      FAIR      20  20 100 CALM      30.31R
6HR MIN TEMP:  19; 6HR MAX TEMP:  30;

BARABOO/DELLS  FAIR      23  21  93 CALM      30.29R
6HR MIN TEMP:  20; 6HR MAX TEMP:  29;

LONE ROCK      FAIR      21  20  96 W8        30.32R WCI  11
6HR MIN TEMP:  20; 6HR MAX TEMP:  34;

MINERAL POINT  FAIR      30  27  86 N8        30.28R WCI  23
MADISON        FAIR      26  19  74 N7        30.27R WCI  18
6HR MIN TEMP:  24; 6HR MAX TEMP:  33;

MIDDLETON      FAIR      26  19  76 NW8       30.28R WCI  17
6HR MIN TEMP:  24; 6HR MAX TEMP:  34;

WATERTOWN      FAIR      24  21  87 NW5       30.25R WCI  18
6HR MIN TEMP:  23; 6HR MAX TEMP:  32;

MONROE         FAIR      30  23  74 N9G16     30.25R WCI  22
JANESVILLE     CLEAR     28  21  74 N8        30.25R WCI  20
$$

WIZ051-052-058>065-066-070>072-191300-
SOUTHEAST WISCONSIN

CITY           SKY/WX    TMP DP  RH WIND       PRES   REMARKS
MILWAUKEE      FAIR      32  22  66 NW9       30.22R WCI  24
6HR MIN TEMP:  31; 6HR MAX TEMP:  36;

WAUKESHA       CLEAR     25  19  80 NW6       30.23R WCI  18
MILWAUKEE/TIMM FAIR      28  19  69 N8        30.23R WCI  20
RACINE         FAIR      32  23  69 N10       30.23R WCI  24
6HR MIN TEMP:  31; 6HR MAX TEMP:  36; 6HR PCP: TRACE;

BURLINGTON     FAIR      28  21  77 NW5       30.23R WCI  22
6HR MIN TEMP:  26; 6HR MAX TEMP:  33;

KENOSHA        FAIR      31  21  66 NW9       30.21R WCI  23
6HR MIN TEMP:  31; 6HR MAX TEMP:  36; 6HR PCP:  0.05;

FOND DU LAC    FAIR      24  15  68 NW9       30.25R WCI  14
6HR MIN TEMP:  22; 6HR MAX TEMP:  32; 6HR PCP: TRACE;

SHEBOYGAN      FAIR      30  21  69 NW9       30.22R WCI  22
6HR MIN TEMP:  28; 6HR MAX TEMP:  34;

WEST BEND      FAIR      28  23  80 NW7       30.23R WCI  21
JUNEAU         FAIR      23  16  73 NW6       30.26R WCI  16
6HR MIN TEMP:  20; 6HR MAX TEMP:  29;

$$

LSZ147-162-191300-
LAKE SUPERIOR

STATION/POSITION TIME  TEMP    WIND        PRES    WAVE
                       AIR SEA DIR/SP/G            HT/PER
                 (UTC) (F)     (DEG/KT/KT) (MB)    (FT/S)
DEVILS ISLAND    1200   36      20/ 10/ 10 1028.8R
SAXON HARBOR     1130   19     200/  5/  6 1026.8R
$$

LMZ867-665-643>646-191300-
LAKE MICHIGAN

STATION/POSITION TIME  TEMP    WIND        PRES    WAVE
                       AIR SEA DIR/SP/G            HT/PER
                 (UTC) (F)     (DEG/KT/KT) (MB)    (FT/S)
NORTHPORT PIER   1140



USA.gov is the U.S. government's official web portal to all federal, state and local government web resources and services.